Погода в Ижевске

Погода в Ижевске : погода сейчас, прогноз погоды и архив. Всё, что Вы хотите узнать о погоде в Ижевске!

Хотите узнать прогноз погоды в Ижевске? Тогда Вам сюда: Погода в Ижевске

Поиск расширенной информации на нашем сайте:

Другие новости

Новости СМИ2

Главная страница сайта

Новости сайта

03.07.2017

Напоминаем, что на нашем специализированном сайте Метеоцентр.Азия вы можете получить высокодетализированные автоматические прогнозы погоды по пунктам России, СНГ и мира в авиационном формате (включающие направление и скорость ветра, видимость, явления погоды, количество и форму облачности, нижнюю и верхнюю границу облачности).

Рекомендуем: биографии мастеров спорта, ашихара.

Погода в Ижевске - сегодня

Время (UTC), дата Ветер
(°,м/с) 
Видим.   Явления Облачность Т
(°С)
Тd
(°С)
f(%) Тe
(°С)
Pmin
(гПа)
dP
(гПа)
Po
(мм)
O2
(г/м3)
Тmin Tmax R s Состояние
почвы
09 22.11.17 120 (ЮВ) 3-4{05}  10 км    8/0 средняя, верхняя 
[Ac trans|Ci fib]
+0.6 -3.7 73 -1  1011.7  -0.6  744  299           
12 22.11.17 110 (В) 3-4{05}  10 км    10/10 1000 м 
[Sc]
+0.3 -3.4 76 -1  1011.3  -0.5  743  300           
15 22.11.17 100 (В) 3-4{05}  10 км    9/0 средняя 
[Ac trans]
-0.6 -2.7 86 -2  1010.2  -1.1  743  300    +0.8       
18 22.11.17 100 (В) 3-4{05}  10 км    6/0 верхняя 
[Ci fib]
-1.5 -3.4 87 -3  1009.1  -1.2  742  301           
21 22.11.17 100 (В) 3-5{07}  10 км    9/0 средняя, верхняя 
[Ac trans|Ci fib]
-0.2 -2.9 82 -2  1008.2  -0.8  741  299           
00 23.11.17 120 (ЮВ) 4-5{06}  10 км    9/0 средняя, верхняя 
[Ac trans|Ci fib]
+1.8 -2.6 73 1007.6  -0.5  741  297           
03 23.11.17 110 (В) 4-5{06}  10 км    9/0 средняя, верхняя 
[Ac trans|Ci fib]
+2 -2 75 1007.5  741  296  -1.6         
06 23.11.17 120 (ЮВ) 3-4{05}  10 км    10/0 средняя 
[Ac und]
+2 -2 75 +1  1008.2  0.7  741  297           
09 23.11.17 120 (ЮВ) 2-4{05}  10 км    10/0 средняя, верхняя 
[Ac trans|Cs]
+3.7 -1.6 68 +3  1009.3  1.2  742  295           
12 23.11.17 130 (ЮВ) 2-4{06}  10 км    10/0 средняя, верхняя 
[Ac trans|Ci fib]
+3 -1.8 71 +2  1009.7  0.4  742  296           
15 23.11.17 130 (ЮВ) 2-3{04}  10 км    9/3 1000 м средняя 
[Sc|Ac trans]
+2.1 -2.2 73 +1  1010.9  1.1  743  297    +4.3       
18 23.11.17 тихо () -2{03}  10 км    8/0 средняя 
[Ac trans]
+0.4 -3.2 77 1012.5  1.4  744  300           
21 23.11.17 тихо () -2{03}  10 км    9/4 1000 м средняя 
[Sc|Ac trans]
+0.6 -2.3 81 +1  1014.2  1.7  746  300           
00 24.11.17 тихо () -2{02}  10 км    9/8 600 м средняя 
[Sc|Ac trans]
+0.9 -1.7 83 +1  1015.4  1.2  746  300           
03 24.11.17 тихо () -1{02}  10 км    10/10 600 м 
[Sc]
+1.2 -1.1 85 +1  1016.5  1.1  747  300  +0.2         
06 24.11.17 тихо () -2{03}  10 км    10/10 1000 м 
[Sc]
+1.2 -0.8 86 +1  1017.3  0.8  748  300           
09 24.11.17 020 (С) 2-3{04}  10 км    10/10 600 м 
[Sc]
+1.9 -0 87 +1  1018.3  749  300           
12 24.11.17 030 (СВ) 3-4{05}  10 км    10/10 300 м 
[Sc]
+1.4 +0 90 1019.1  0.7  749  300           
15 24.11.17 040 (СВ) 4-5{06}  10 км    10/10 300 м 
[Sc]
+0.8 -0.6 90 -2  1019.5  0.4  749  301    +2       
18 24.11.17 020 (С) 4-5{06}  10 км    10/10 300 м 
[Sc]
-0.4 -1.9 90 -3  1020  0.4  750  303           
21 24.11.17 030 (СВ) 3-4{06}  10 км    10/10 600 м 
[Sc]
-1.6 -3.6 86 -4  1021.2  1.1  751  305           
00 25.11.17 040 (СВ) 3-4{06}  10 км    10/10 600 м 
[Sc]
-2 -3.8 87 -4  1022.3  751  305           
03 25.11.17 030 (СВ) 3-4{05}  10 км    10/10 300 м 
[Sc]
-3 -5 86 -5  1022.2  -0.1  751  307  -3         
06 25.11.17 030 (СВ) 1-2{04}  10 км    10/10 200 м 
[Sc]
-3.4 -5.5 85 -3  1023.4  1.1  752  307  -3.5         
09 25.11.17 030 (СВ) 2-3{04}  10 км    10/10 200 м 
[Sc]
-2.8 -5.1 84 -4  1024.1  0.7  753  307           
Время (UTC), дата Ветер
(°,м/с) 
Видим.   Явления Облачность Т
(°С)
Тd
(°С)
f(%) Тe
(°С)
Pmin
(гПа)
dP
(гПа)
Po
(мм)
O2
(г/м3)
Тmin Tmax R s Состояние
почвы

Для получения пояснительной информации подведите курсор к названию столбца.

ПОГОДА в Ижевске - архив

Всё, что Вы хотите узнать о погоде в Ижевске - удобно и подробно!

Выберите нужную дату (начиная с 1 января 2015* года) и нажмите кнопку "Найти".
Будут отображены архивные сводки погоды по пункту Ижевск, начиная с указанной даты.


Отображать данные в формате CSV (для использования в таблицах Excel)


Внимание! Наш архив погоды предназначен исключительно для личного некоммерческого использования в познавательных целях. Если Вам необходимы официальные справки о состоянии погоды (для производственных, юридических, коммерческих и т.п. целей), обращайтесь в органы Росгидромета.

*Примечание: данная дата относится к архиву по метеостанциям СССР (Россия, СНГ, Балтия).
Архив по метеостанциям Зарубежной Европы и Азии (кроме Китая) хранится 10 дней, по другим регионам земного шара (Китай, Африка, Америка, Австралия, Океания) - 1 день.

Ижевск - район местоположения метеостанции


Название, широта, долгота, высота метеостанции:
Ижевск 56.8°ш. 53.4°д. 159 м над ур. моря [Российская Федерация]

Дополнительная информация

В oтличие oт бoльшинства пoгoдных сайтoв мы публикуем пoдрoбную метеoинфoрмацию в детальнoм прoфессиoнальнoм фoрмате.

Характеристики температуры и влажнoсти вoздуха измеряются на высoте 2 м в тени вдали oт зданий и деревьев.
Скoрoсть ветра измеряется на высoте 10 м (на урoвне рoста челoвека скoрoсть ветра ниже в 1.5-2 раза). Если метеoстанция нахoдится в гoрoде или в лесу, тo скoрoсть ветра занижена на 2-4 м/с пo сравнению с oткрытым местoм. Скoрoсть ветра над акватoриями крупных рек и oзёр, а также на вершинах хoлмoв на 2-5 м/с выше, чем в oбычных услoвиях.
Атмoсфернoе давление в разных тoчках местнoсти мoжет значительнo oтличаться oт давления на метеoстанции, в зависимoсти oт услoвий рельефа (при пoдъёме на 10 м давление пoнижается примернo на 1 мм рт.ст.).